AB5KT-1 Weather Reports


Display with metric or nautical units.
time (UTC)temp
F
wind
direction
speed
MPH
gust
MPH
rain 1hr
in
rain 24hr
in
rain mn
in
humidity
%
barometer
mb
20260504184634 78 200 6.0 14.0 0.00 0.00 0.00 65 1013.2
20260504184132 78 157 7.0 15.0 0.00 0.00 0.00 66 1013.4
20260504183635 77 233 7.0 16.0 0.00 0.00 0.00 66 1013.7
20260504183631 77 176 7.0 15.0 0.00 0.00 0.00 66 1013.5
20260504182630 77 162 8.0 16.0 0.00 0.00 0.00 66 1013.8
20260504182131 77 159 7.0 12.0 0.00 0.00 0.00 66 1013.8
20260504181630 78 165 5.0 11.0 0.00 0.00 0.00 66 1013.6
20260504181130 77 226 5.0 13.0 0.00 0.00 0.00 66 1013.7
20260504180629 77 80 6.0 13.0 0.00 0.00 0.00 66 1014.1
20260504180128 77 153 6.0 14.0 0.00 0.00 0.00 65 1014.2
20260504175627 77 133 7.0 14.0 0.00 0.00 0.00 66 1014.0
20260504175126 77 193 7.0 14.0 0.00 0.00 0.00 66 1014.1
20260504174626 76 231 7.0 14.0 0.00 0.00 0.00 69 1014.0
20260504174131 76 145 7.0 13.0 0.00 0.00 0.00 67 1014.2
20260504174126 76 150 8.0 13.0 0.00 0.00 0.00 68 1014.1
20260504173130 76 169 6.0 13.0 0.00 0.00 0.00 70 1014.3
20260504173126 76 154 6.0 13.0 0.00 0.00 0.00 67 1014.3
20260504172127 76 161 7.0 15.0 0.00 0.00 0.00 68 1014.5
20260504171626 76 148 7.0 15.0 0.00 0.00 0.00 68 1014.5
20260504171126 76 235 6.0 13.0 0.00 0.00 0.00 69 1014.5
20260504170627 76 170 6.0 13.0 0.00 0.00 0.00 69 1014.6
20260504170122 76 178 7.0 12.0 0.00 0.00 0.00 69 1014.6
20260504160115 73 157 6.0 14.0 0.00 0.00 0.00 72 1015.0
20260504151107 69 168 6.0 13.0 0.00 0.00 0.00 79 1015.6
20260504150604 69 89 5.0 11.0 0.00 0.00 0.00 78 1015.6
20260504141102 66 157 5.0 13.0 0.00 0.00 0.00 79 1015.6
20260504140603 66 171 4.0 9.0 0.00 0.00 0.00 79 1015.5
20260504130602 64 146 1.0 5.0 0.00 0.00 0.00 80 1015.4
20260504110602 62 165 0.0 2.0 0.00 0.00 0.00 80 1015.0
20260504110558 62 165 0.0 2.0 0.00 0.00 0.00 81 1014.8
20260504100554 63 136 2.0 6.0 0.00 0.00 0.00 79 1015.2
20260504081552 64 155 4.0 8.0 0.00 0.00 0.00 76 1015.8
20260504081548 64 155 3.0 8.0 0.00 0.00 0.00 77 1015.9
20260504081152 64 143 3.0 7.0 0.00 0.00 0.00 76 1015.9
20260504045534 67 147 2.0 7.0 0.00 0.00 0.00 67 1017.7
20260504045034 67 150 3.0 7.0 0.00 0.00 0.00 66 1017.6
20260504044534 67 143 3.0 10.0 0.00 0.00 0.00 66 1017.6
20260504044034 67 134 3.0 10.0 0.00 0.00 0.00 65 1017.8
20260504043534 67 111 2.0 9.0 0.00 0.00 0.00 65 1017.6
20260504043034 67 83 2.0 9.0 0.00 0.00 0.00 65 1017.7
20260504042534 67 96 2.0 7.0 0.00 0.00 0.00 64 1017.7
20260504042035 67 86 2.0 8.0 0.00 0.00 0.00 64 1017.7
20260504041534 68 143 3.0 8.0 0.00 0.00 0.00 63 1017.7
20260504041034 68 126 3.0 9.0 0.00 0.00 0.00 62 1017.7
20260504040532 68 153 2.0 9.0 0.00 0.00 0.00 62 1017.7
20260504040032 68 134 2.0 7.0 0.00 0.00 0.00 61 1017.8
20260504035533 68 133 2.0 7.0 0.00 0.00 0.00 61 1017.9
20260504035032 69 103 2.0 7.0 0.00 0.00 0.00 60 1017.8
20260504034532 69 117 2.0 6.0 0.00 0.00 0.00 59 1017.8
20260504034032 69 123 3.0 8.0 0.00 0.00 0.00 58 1017.7
20260504033532 69 132 2.0 8.0 0.00 0.00 0.00 57 1017.7
20260504033032 69 190 1.0 6.0 0.00 0.00 0.00 57 1017.8
20260504032533 70 88 1.0 6.0 0.00 0.00 0.00 56 1017.8
20260504032032 70 134 1.0 5.0 0.00 0.00 0.00 55 1017.7
20260504031530 70 135 2.0 9.0 0.00 0.00 0.00 55 1017.6
20260504031031 70 119 2.0 9.0 0.00 0.00 0.00 54 1017.6
20260504030530 70 129 2.0 9.0 0.00 0.00 0.00 54 1017.5
20260504030030 70 85 1.0 9.0 0.00 0.00 0.00 53 1017.5
20260504025530 70 138 1.0 5.0 0.00 0.00 0.00 52 1017.5
20260504025030 70 117 1.0 5.0 0.00 0.00 0.00 52 1017.5
20260504024534 70 140 0.0 2.0 0.00 0.00 0.00 51 1017.4
20260504024530 70 139 0.0 1.0 0.00 0.00 0.00 51 1017.5
20260504023530 69 140 0.0 2.0 0.00 0.00 0.00 52 1017.4
20260504023031 69 140 0.0 1.0 0.00 0.00 0.00 52 1017.4
20260504022530 70 140 0.0 1.0 0.00 0.00 0.00 52 1017.5
20260504022030 70 140 0.0 1.0 0.00 0.00 0.00 50 1017.5
20260504021529 71 140 0.0 1.0 0.00 0.00 0.00 50 1017.4
20260504021027 71 140 0.0 1.0 0.00 0.00 0.00 49 1017.6
20260504020525 71 140 0.0 1.0 0.00 0.00 0.00 49 1017.5
20260504020023 71 140 0.0 1.0 0.00 0.00 0.00 48 1017.4
20260504015522 72 140 0.0 1.0 0.00 0.00 0.00 47 1017.4
20260504015027 72 140 0.0 1.0 0.00 0.00 0.00 46 1017.2
20260504015022 72 140 0.0 1.0 0.00 0.00 0.00 47 1017.3
20260504014022 73 140 0.0 1.0 0.00 0.00 0.00 46 1017.2
20260504013522 73 140 0.0 1.0 0.00 0.00 0.00 45 1017.1
20260504013023 73 140 0.0 1.0 0.00 0.00 0.00 44 1017.0
20260504012522 74 140 0.0 1.0 0.00 0.00 0.00 43 1017.1
20260504012023 74 140 0.0 4.0 0.00 0.00 0.00 43 1017.1
20260504011522 74 139 0.0 4.0 0.00 0.00 0.00 42 1017.1
20260504011022 75 145 0.0 3.0 0.00 0.00 0.00 42 1017.0
20260504010521 75 130 1.0 4.0 0.00 0.00 0.00 41 1016.9
20260504010020 76 123 1.0 5.0 0.00 0.00 0.00 41 1017.0
20260504005520 76 137 1.0 5.0 0.00 0.00 0.00 41 1017.1
20260504005025 77 137 1.0 6.0 0.00 0.00 0.00 40 1017.0
20260504005021 76 138 1.0 5.0 0.00 0.00 0.00 40 1017.0
20260504004021 77 93 1.0 6.0 0.00 0.00 0.00 39 1017.1
20260504003520 78 136 2.0 6.0 0.00 0.00 0.00 39 1017.2
20260504003020 78 219 2.0 6.0 0.00 0.00 0.00 38 1017.2
20260504002519 78 167 1.0 6.0 0.00 0.00 0.00 38 1017.1
20260504002019 78 155 1.0 8.0 0.00 0.00 0.00 38 1017.1
20260504001518 78 120 2.0 8.0 0.00 0.00 0.00 38 1017.2
20260504001016 79 179 2.0 9.0 0.00 0.00 0.00 38 1017.2
20260504000515 79 113 2.0 9.0 0.00 0.00 0.00 38 1017.1
20260504000014 79 171 3.0 8.0 0.00 0.00 0.00 37 1017.2
20260503235514 80 167 4.0 8.0 0.00 0.00 0.00 37 1017.4
20260503235015 79 153 5.0 9.0 0.00 0.00 0.00 35 1017.3
20260503235011 79 155 4.0 8.0 0.00 0.00 0.00 36 1017.3
20260503234010 80 168 3.0 9.0 0.00 0.00 0.00 35 1017.4
20260503233513 80 171 4.0 9.0 0.00 0.00 0.00 37 1017.6
20260503233509 80 171 2.0 9.0 0.00 0.00 0.00 36 1017.6
20260503232506 79 143 4.0 10.0 0.00 0.00 0.00 36 1017.7
20260503232005 80 196 4.0 10.0 0.00 0.00 0.00 35 1017.7
20260503231508 80 123 3.0 8.0 0.00 0.00 0.00 36 1017.7
20260503231503 80 153 4.0 10.0 0.00 0.00 0.00 36 1017.6
20260503230503 80 142 4.0 10.0 0.00 0.00 0.00 35 1017.6
20260503225958 81 124 3.0 8.0 0.00 0.00 0.00 36 1017.8
20260503225458 81 137 3.0 7.0 0.00 0.00 0.00 35 1017.9
20260503224959 81 131 4.0 10.0 0.00 0.00 0.00 36 1017.7
20260503224458 80 94 4.0 11.0 0.00 0.00 0.00 36 1017.8
20260503223954 80 198 4.0 11.0 0.00 0.00 0.00 37 1017.8
20260503223459 80 155 5.0 12.0 0.00 0.00 0.00 34 1017.8
20260503223455 80 133 4.0 12.0 0.00 0.00 0.00 35 1017.9
20260503222454 80 142 5.0 13.0 0.00 0.00 0.00 35 1017.8
20260503221955 80 126 4.0 13.0 0.00 0.00 0.00 34 1018.0
20260503221454 81 121 3.0 8.0 0.00 0.00 0.00 34 1018.1
20260503220955 81 109 3.0 8.0 0.00 0.00 0.00 35 1018.1
20260503220455 80 122 5.0 10.0 0.00 0.00 0.00 35 1018.2
20260503215955 80 172 5.0 10.0 0.00 0.00 0.00 33 1018.4
20260503215456 81 167 4.0 9.0 0.00 0.00 0.00 33 1018.5
20260503214954 81 146 4.0 9.0 0.00 0.00 0.00 34 1018.5
20260503214459 81 113 4.0 9.0 0.00 0.00 0.00 34 1018.9
20260503214455 81 142 3.0 9.0 0.00 0.00 0.00 34 1018.8
20260503213455 81 176 3.0 9.0 0.00 0.00 0.00 33 1019.0
20260503212955 81 108 2.0 8.0 0.00 0.00 0.00 35 1019.0
20260503212454 80 38 4.0 13.0 0.00 0.00 0.00 35 1019.0
20260503211955 81 200 5.0 13.0 0.00 0.00 0.00 33 1019.1
20260503211454 80 164 4.0 11.0 0.00 0.00 0.00 33 1019.4
20260503210959 80 155 4.0 10.0 0.00 0.00 0.00 33 1019.5
20260503210955 80 183 3.0 8.0 0.00 0.00 0.00 34 1019.4
20260503205954 80 148 4.0 10.0 0.00 0.00 0.00 35 1019.5
20260503205455 80 120 4.0 10.0 0.00 0.00 0.00 33 1019.5
20260503204955 80 177 5.0 12.0 0.00 0.00 0.00 32 1019.8
20260503204454 80 171 5.0 12.0 0.00 0.00 0.00 30 1019.9
20260503203955 80 119 4.0 11.0 0.00 0.00 0.00 35 1020.1
20260503203454 79 135 5.0 11.0 0.00 0.00 0.00 34 1020.3
20260503202955 79 175 6.0 11.0 0.00 0.00 0.00 35 1020.3
20260503202455 79 157 5.0 14.0 0.00 0.00 0.00 34 1020.3
20260503201954 79 167 6.0 14.0 0.00 0.00 0.00 33 1020.4
20260503201455 79 192 7.0 15.0 0.00 0.00 0.00 33 1020.4
20260503200954 80 154 5.0 15.0 0.00 0.00 0.00 33 1020.4
20260503200601 81 113 3.0 10.0 0.00 0.00 0.00 35 1020.9
20260503200454 80 207 3.0 10.0 0.00 0.00 0.00 36 1020.5
20260503195959 80 161 4.0 10.0 0.00 0.00 0.00 33 1020.8
20260503195955 80 66 4.0 10.0 0.00 0.00 0.00 35 1020.7
20260503194455 80 41 3.0 10.0 0.00 0.00 0.00 35 1021.1
20260503193954 79 145 4.0 9.0 0.00 0.00 0.00 35 1021.0
20260503193453 78 80 4.0 10.0 0.00 0.00 0.00 35 1021.1
20260503192953 79 226 4.0 10.0 0.00 0.00 0.00 38 1021.1
20260503192452 79 196 2.0 8.0 0.00 0.00 0.00 37 1021.1
20260503191952 79 128 3.0 8.0 0.00 0.00 0.00 38 1021.0
20260503191451 79 126 4.0 9.0 0.00 0.00 0.00 32 1021.1
20260503190954 79 116 2.0 8.0 0.00 0.00 0.00 36 1021.4
20260503190950 80 121 4.0 9.0 0.00 0.00 0.00 33 1021.4
20260503185948 79 98 2.0 7.0 0.00 0.00 0.00 38 1021.5
20260503185448 78 90 3.0 9.0 0.00 0.00 0.00 36 1021.6